Location: Unspecified
(0.0000°N, 0.0000°E)
Time: 14:54:22
(UTC+00:00)

Altair - Pass Details

Date: 03 November 2021
Orbit: 1502 x 1682 km, 47.2° (Epoch: 26 November)

Event Time Altitude Azimuth Distance (km) Brightness Sun altitude
Rises 06:58:17 0° 345° (NNW) 4,797 9.8 18.0°
Reaches altitude 10° 07:02:17 10° 359° (N) 3,843 9.5 19.0°
Maximum altitude 07:09:39 24° 48° (NE) 2,959 9.6 20.7°
Drops below altitude 10° 07:17:08 10° 97° (E) 3,929 11.6 22.5°
Sets 07:21:13 0° 110° (ESE) 4,929 11.6 23.5°
